sat.trackr.live / text

‹ back to catalog

QIANFAN-151

NORAD 69110 · 2026-108G

PAYLOAD ACTIVE UNKNOWN

§ Identity

Operator
Country
PRC
Launch date
2026-05-17
Launch site
WSC
Launch vehicle
Mass (kg)
RCS (m²)

External: N2YO · Heavens-Above · Gunter

§ Orbital elements

Epoch: 2026-09-20T03:00:18.682272Z

Period
106.59 min
Inclination
89.0193°
Eccentricity
0.0001819
Mean motion
13.51027831 rev/d
Perigee alt
1,067.1 km
Apogee alt
1,069.8 km
Semi-major
7,446.6 km
B*
1.5917e-4
RAAN
12.5639°
Arg perigee
103.7510°
Mean anomaly
256.3844°
Rev number
1,725

§ Raw data

QIANFAN-1511 69110U 26108G   26263.12521623  .00000115  00000+0  15917-3 0  99972 69110  89.0193  12.5639 0001819 103.7510 256.3844 13.51027831 17259

JSON: /api/v1/satellites/69110 · /tle

For live sub-satellite position, see the globe view (requires WebGL).

§ Visibility from observer

Set your observer location to see the next 7 days of passes ≥ 10°. The values pass through the URL so the page stays shareable.

No JS? Fill the form by hand. The geolocation button needs JavaScript.